GW2742 Weather Reports


time (UTC)temp
C
wind
direction
speed
KPH
gust
KPH
rain 1hr
cm
rain 24hr
cm
rain mn
cm
humidity
%
barometer
mb
20260902100043 12 105 1.6 4.8 0.00 0.00 0.00 75 1011.9
20260902095523 12 0 0.0 1.6 0.00 0.00 0.00 75 1011.8
20260902095025 12 0 0.0 0.0 0.00 0.00 0.00 75 1011.9
20260902094543 13 0 0.0 0.0 0.00 0.00 0.00 74 1012.0
20260902094024 13 0 0.0 1.6 0.00 0.00 0.00 73 1012.1
20260902093524 13 0 0.0 1.6 0.00 0.00 0.00 73 1012.0
20260902093048 13 0 0.0 1.6 0.00 0.00 0.00 73 1012.2
20260902092524 13 0 0.0 4.8 0.00 0.00 0.00 73 1012.2
20260902092025 13 0 0.0 4.8 0.00 0.00 0.00 73 1012.2
20260902091544 13 105 1.6 4.8 0.00 0.00 0.00 73 1012.5
20260902091024 13 0 0.0 1.6 0.00 0.00 0.00 73 1012.3
20260902090531 13 0 0.0 0.0 0.00 0.00 0.00 72 1012.2
20260902090043 13 0 0.0 3.2 0.00 0.00 0.00 72 1012.3
20260902085525 13 0 0.0 3.2 0.00 0.00 0.00 72 1012.4
20260902085024 14 323 0.0 3.2 0.00 0.00 0.00 71 1012.4
20260902084545 14 0 0.0 1.6 0.00 0.00 0.00 71 1012.5
20260902084024 14 323 0.0 3.2 0.00 0.00 0.00 71 1012.5
20260902083525 14 0 0.0 3.2 0.00 0.00 0.00 71 1012.5
20260902083112 14 323 0.0 3.2 0.00 0.00 0.00 70 1012.4
20260902082525 14 0 0.0 3.2 0.00 0.00 0.00 71 1012.4
20260902082023 14 0 0.0 3.2 0.00 0.00 0.00 71 1012.4
20260902081547 14 0 0.0 3.2 0.00 0.00 0.00 70 1012.2
20260902081025 14 0 0.0 3.2 0.00 0.00 0.00 70 1012.4
20260902080524 14 332 1.6 4.8 0.00 0.00 0.00 70 1012.2
20260902080045 14 0 0.0 6.4 0.00 0.00 0.00 71 1012.1
20260902075525 14 332 3.2 6.4 0.00 0.00 0.00 70 1012.2
20260902075026 14 1 1.6 6.4 0.00 0.00 0.00 71 1012.1
20260902074543 14 0 1.6 4.8 0.00 0.00 0.00 71 1012.2
20260902074025 15 0 0.0 4.8 0.00 0.00 0.00 70 1012.1
20260902073523 15 0 0.0 4.8 0.00 0.00 0.00 70 1012.0
20260902073054 15 12 1.6 4.8 0.00 0.00 0.00 70 1011.8
20260902072524 15 34 1.6 4.8 0.00 0.00 0.00 69 1011.9
20260902072023 15 0 0.0 4.8 0.00 0.00 0.00 69 1012.1
20260902071545 15 333 1.6 4.8 0.00 0.00 0.00 69 1012.1
20260902071026 15 168 0.0 3.2 0.00 0.00 0.00 67 1012.2
20260902070524 16 0 0.0 6.4 0.00 0.00 0.00 67 1012.5
20260902070048 16 0 0.0 6.4 0.00 0.00 0.00 67 1012.9
20260902065529 16 168 1.6 6.4 0.00 0.00 0.00 67 1012.8
20260902065023 16 338 1.6 4.8 0.00 0.00 0.00 67 1012.4
20260902064545 16 198 0.0 6.4 0.00 0.00 0.00 65 1012.5
20260902064023 16 0 1.6 9.7 0.00 0.00 0.00 66 1012.5
20260902063523 16 0 1.6 9.7 0.00 0.00 0.00 66 1012.8
20260902063046 16 186 1.6 4.8 0.00 0.00 0.00 66 1013.1
20260902062526 16 222 0.0 6.4 0.00 0.00 0.00 67 1012.8
20260902062024 16 0 1.6 6.4 0.00 0.00 0.00 68 1012.7
20260902061548 15 201 3.2 6.4 0.00 0.00 0.00 70 1012.7
20260902061024 15 230 3.2 6.4 0.00 0.00 0.00 70 1012.5
20260902060523 15 213 3.2 6.4 0.00 0.00 0.00 72 1012.5
20260902060104 15 179 3.2 8.0 0.00 0.00 0.00 72 1012.5
20260902055523 15 199 3.2 8.0 0.00 0.00 0.00 73 1012.4
20260902055025 15 188 1.6 6.4 0.00 0.00 0.00 72 1012.5
20260902054555 15 0 0.0 0.0 0.00 0.00 0.00 72 1012.4
20260902054033 15 0 0.0 0.0 0.00 0.00 0.00 71 1012.3
20260902053530 15 0 0.0 0.0 0.00 0.00 0.00 71 1012.2
20260902053057 15 0 0.0 0.0 0.00 0.00 0.00 71 1012.2
20260902052523 15 0 0.0 0.0 0.00 0.00 0.00 70 1012.3
20260902052023 16 0 0.0 0.0 0.00 0.00 0.00 69 1012.3
20260902051543 16 0 0.0 0.0 0.00 0.00 0.00 68 1012.2
20260902051025 16 0 0.0 0.0 0.00 0.00 0.00 68 1012.1
20260902050526 16 0 0.0 0.0 0.00 0.00 0.00 67 1012.1
20260902050059 16 0 0.0 0.0 0.00 0.00 0.00 67 1012.1
20260902045524 16 0 0.0 0.0 0.00 0.00 0.00 66 1012.2
20260902045024 17 0 0.0 3.2 0.00 0.00 0.00 65 1012.2
20260902044550 17 0 0.0 3.2 0.00 0.00 0.00 64 1012.2
20260902044029 17 238 1.6 3.2 0.00 0.00 0.00 63 1012.2
20260902043523 17 0 0.0 3.2 0.00 0.00 0.00 63 1012.2
20260902043053 17 0 0.0 4.8 0.00 0.00 0.00 63 1012.2
20260902042526 17 0 1.6 4.8 0.00 0.00 0.00 62 1012.2
20260902042025 17 272 1.6 4.8 0.00 0.00 0.00 61 1012.2
20260902041543 17 0 0.0 0.0 0.00 0.00 0.00 60 1012.1
20260902041025 17 0 0.0 0.0 0.00 0.00 0.00 59 1012.2
20260902040528 17 0 0.0 0.0 0.00 0.00 0.00 59 1012.3
20260902040055 18 0 0.0 0.0 0.00 0.00 0.00 60 1012.3
20260902035526 18 0 0.0 3.2 0.00 0.00 0.00 59 1012.2
20260902035029 18 0 0.0 3.2 0.00 0.00 0.00 58 1012.2
20260902034546 18 0 0.0 3.2 0.00 0.00 0.00 55 1012.1
20260902034028 18 0 0.0 3.2 0.00 0.00 0.00 57 1012.1
20260902033527 18 0 1.6 3.2 0.00 0.00 0.00 56 1012.0
20260902033046 18 241 0.0 1.6 0.00 0.00 0.00 55 1012.0
20260902032525 18 0 0.0 3.2 0.00 0.00 0.00 53 1011.9
20260902032027 19 0 0.0 3.2 0.00 0.00 0.00 52 1011.9
20260902031547 19 241 0.0 1.6 0.00 0.00 0.00 50 1011.7
20260902031029 20 0 0.0 0.0 0.00 0.00 0.00 49 1011.7
20260902030525 20 0 0.0 0.0 0.00 0.00 0.00 48 1011.7
20260902030053 20 0 0.0 0.0 0.00 0.00 0.00 48 1011.7
20260902025527 20 0 0.0 0.0 0.00 0.00 0.00 47 1011.5
20260902025027 20 0 0.0 3.2 0.00 0.00 0.00 47 1011.5
20260902024546 21 0 0.0 3.2 0.00 0.00 0.00 46 1011.5
20260902024026 21 241 0.0 3.2 0.00 0.00 0.00 47 1011.5
20260902023530 21 0 0.0 0.0 0.00 0.00 0.00 45 1011.6
20260902023048 21 0 0.0 0.0 0.00 0.00 0.00 45 1011.5
20260902022526 21 0 0.0 0.0 0.00 0.00 0.00 46 1011.5
20260902022033 21 0 0.0 0.0 0.00 0.00 0.00 46 1011.5
20260902021544 21 0 0.0 0.0 0.00 0.00 0.00 49 1011.5
20260902021025 21 0 0.0 0.0 0.00 0.00 0.00 46 1011.3
20260902020526 22 0 0.0 0.0 0.00 0.00 0.00 47 1011.3
20260902020043 22 0 0.0 0.0 0.00 0.00 0.00 46 1011.3
20260902015527 22 0 0.0 0.0 0.00 0.00 0.00 45 1011.3
20260902015026 23 0 0.0 0.0 0.00 0.00 0.00 45 1011.3
20260902014547 23 0 0.0 0.0 0.00 0.00 0.00 44 1011.3
20260902014031 23 0 0.0 0.0 0.00 0.00 0.00 43 1011.2
20260902013527 24 0 0.0 0.0 0.00 0.00 0.00 42 1011.1
20260902013048 25 0 0.0 0.0 0.00 0.00 0.00 41 1011.2
20260902012530 25 0 0.0 0.0 0.00 0.00 0.00 41 1011.2
20260902012023 25 0 0.0 0.0 0.00 0.00 0.00 41 1011.3
20260902011557 25 0 0.0 0.0 0.00 0.00 0.00 41 1011.3
20260902011024 26 0 0.0 0.0 0.00 0.00 0.00 41 1011.3
20260902010524 26 0 0.0 0.0 0.00 0.00 0.00 40 1011.3
20260902010043 26 0 0.0 1.6 0.00 0.00 0.00 40 1011.3
20260902005527 25 0 0.0 1.6 0.00 0.00 0.00 42 1011.3
20260902005025 25 0 0.0 3.2 0.00 0.00 0.00 44 1011.4
20260902004547 25 0 0.0 3.2 0.00 0.00 0.00 43 1011.4
20260902004032 25 0 0.0 4.8 0.00 0.00 0.00 42 1011.3
20260902003523 25 0 1.6 6.4 0.00 0.00 0.00 42 1011.3
20260902003044 25 238 1.6 6.4 0.00 0.00 0.00 42 1011.3
20260902002523 25 0 1.6 3.2 0.00 0.00 0.00 41 1011.2
20260902002023 25 0 0.0 4.8 0.00 0.00 0.00 43 1011.3
20260902001549 25 0 0.0 6.4 0.00 0.00 0.00 45 1011.4
20260902001025 25 0 0.0 6.4 0.00 0.00 0.00 44 1011.4
20260902000525 25 262 3.2 9.7 0.00 0.00 0.00 40 1011.5
20260902000044 25 354 1.6 9.7 0.00 0.00 0.00 41 1011.4
20260901235527 26 269 1.6 12.9 0.00 0.00 0.00 42 1011.4
20260901235025 26 323 3.2 12.9 0.00 0.00 0.00 39 1011.5
20260901234548 26 266 4.8 12.9 0.00 0.00 0.00 40 1011.4
20260901234024 26 294 1.6 6.4 0.00 0.00 0.00 37 1011.6
20260901233528 26 252 3.2 8.0 0.00 0.00 0.00 39 1011.6
20260901233050 26 244 3.2 8.0 0.00 0.00 0.00 38 1011.6
20260901232524 26 198 1.6 9.7 0.00 0.00 0.00 36 1011.6
20260901232024 26 233 1.6 11.3 0.00 0.00 0.00 37 1011.7
20260901231607 26 230 3.2 11.3 0.00 0.00 0.00 35 1011.6
20260901231025 26 226 3.2 11.3 0.00 0.00 0.00 34 1011.6
20260901230526 26 193 1.6 6.4 0.00 0.00 0.00 35 1011.7
20260901230056 26 227 1.6 6.4 0.00 0.00 0.00 35 1011.8
20260901225524 26 228 0.0 6.4 0.00 0.00 0.00 37 1011.8
20260901225024 27 225 1.6 9.7 0.00 0.00 0.00 33 1011.6
20260901224546 27 176 4.8 9.7 0.00 0.00 0.00 34 1011.7
20260901224024 27 233 3.2 8.0 0.00 0.00 0.00 38 1011.6
20260901223524 27 220 3.2 8.0 0.00 0.00 0.00 33 1011.6
20260901223047 27 187 1.6 12.9 0.00 0.00 0.00 35 1011.6
20260901222525 27 235 6.4 12.9 0.00 0.00 0.00 31 1011.6
20260901222024 27 213 3.2 12.9 0.00 0.00 0.00 34 1011.6
20260901221608 28 233 3.2 12.9 0.00 0.00 0.00 32 1011.6
20260901221028 28 185 1.6 11.3 0.00 0.00 0.00 31 1011.6
20260901220528 28 173 4.8 11.3 0.00 0.00 0.00 29 1011.6
20260901220115 28 0 1.6 9.7 0.00 0.00 0.00 30 1011.6
20260901215527 28 204 4.8 9.7 0.00 0.00 0.00 30 1011.7
20260901215025 28 0 0.0 11.3 0.00 0.00 0.00 28 1011.7
20260901214550 28 218 1.6 11.3 0.00 0.00 0.00 29 1011.8
20260901214028 28 186 3.2 9.7 0.00 0.00 0.00 33 1011.9
20260901213525 28 163 1.6 4.8 0.00 0.00 0.00 35 1011.9
20260901213105 28 0 1.6 6.4 0.00 0.00 0.00 37 1011.9
20260901212527 28 0 1.6 6.4 0.00 0.00 0.00 35 1012.1
20260901212029 28 0 1.6 9.7 0.00 0.00 0.00 32 1012.0
20260901211546 28 0 4.8 9.7 0.00 0.00 0.00 31 1012.0
20260901211027 27 279 4.8 12.9 0.00 0.00 0.00 30 1012.1
20260901210530 27 203 1.6 12.9 0.00 0.00 0.00 33 1012.2
20260901210044 27 168 4.8 12.9 0.00 0.00 0.00 32 1012.2
20260901205527 27 193 1.6 6.4 0.00 0.00 0.00 30 1012.1
20260901205029 27 326 1.6 8.0 0.00 0.00 0.00 32 1012.3
20260901204601 27 47 3.2 8.0 0.00 0.00 0.00 30 1012.5
20260901204027 27 0 0.0 4.8 0.00 0.00 0.00 32 1012.6
20260901203528 27 193 1.6 11.3 0.00 0.00 0.00 32 1012.5
20260901203045 27 131 1.6 11.3 0.00 0.00 0.00 35 1012.7
20260901202527 27 200 3.2 8.0 0.00 0.00 0.00 34 1012.8
20260901202028 27 290 3.2 8.0 0.00 0.00 0.00 33 1012.9
20260901201546 27 37 1.6 8.0 0.00 0.00 0.00 37 1013.0
20260901201027 27 75 1.6 8.0 0.00 0.00 0.00 37 1013.0
20260901200530 27 124 1.6 8.0 0.00 0.00 0.00 34 1013.1
20260901200114 27 210 1.6 8.0 0.00 0.00 0.00 36 1013.1
20260901195524 26 214 1.6 8.0 0.00 0.00 0.00 35 1013.1
20260901195026 26 217 4.8 8.0 0.00 0.00 0.00 34 1013.1
20260901194606 26 202 3.2 12.9 0.00 0.00 0.00 37 1013.1
20260901194030 26 0 3.2 12.9 0.00 0.00 0.00 35 1013.1
20260901193528 26 161 3.2 8.0 0.00 0.00 0.00 44 1013.2
20260901193050 26 148 3.2 9.7 0.00 0.00 0.00 39 1013.3
20260901192530 26 261 4.8 9.7 0.00 0.00 0.00 41 1013.2
20260901192026 26 197 1.6 9.7 0.00 0.00 0.00 41 1013.3
20260901191628 26 249 3.2 8.0 0.00 0.00 0.00 40 1013.4
20260901191025 26 185 3.2 11.3 0.00 0.00 0.00 39 1013.5
20260901190525 26 184 3.2 11.3 0.00 0.00 0.00 40 1013.6
20260901190057 26 207 4.8 9.7 0.00 0.00 0.00 43 1013.6
20260901185528 25 265 3.2 9.7 0.00 0.00 0.00 45 1013.7
20260901185025 25 271 3.2 11.3 0.00 0.00 0.00 44 1013.7
20260901184544 25 233 4.8 11.3 0.00 0.00 0.00 47 1013.8
20260901184025 25 288 3.2 11.3 0.00 0.00 0.00 49 1013.7
20260901183528 25 265 1.6 6.4 0.00 0.00 0.00 45 1013.9
20260901183056 25 0 1.6 6.4 0.00 0.00 0.00 47 1014.0
20260901182525 25 262 1.6 8.0 0.00 0.00 0.00 45 1013.9
20260901182028 25 274 1.6 9.7 0.00 0.00 0.00 43 1014.0
20260901181600 25 191 3.2 14.5 0.00 0.00 0.00 42 1014.0
20260901181027 25 195 4.8 14.5 0.00 0.00 0.00 44 1014.1
20260901180525 25 221 6.4 14.5 0.00 0.00 0.00 44 1014.2
20260901180045 25 0 6.4 14.5 0.00 0.00 0.00 43 1014.3
20260901175530 25 194 4.8 14.5 0.00 0.00 0.00 46 1014.3
20260901175024 25 146 6.4 17.7 0.00 0.00 0.00 43 1014.4
20260901174546 25 110 8.0 17.7 0.00 0.00 0.00 46 1014.4
20260901174027 25 207 4.8 17.7 0.00 0.00 0.00 45 1014.3
20260901173532 24 231 8.0 17.7 0.00 0.00 0.00 47 1014.4
20260901173052 24 155 8.0 16.1 0.00 0.00 0.00 46 1014.6
20260901172525 23 141 6.4 14.5 0.00 0.00 0.00 49 1014.6
20260901172026 23 131 3.2 11.3 0.00 0.00 0.00 53 1014.6
20260901171558 22 203 1.6 6.4 0.00 0.00 0.00 47 1014.6
20260901171024 22 241 1.6 4.8 0.00 0.00 0.00 46 1014.7
20260901170526 22 278 1.6 6.4 0.00 0.00 0.00 48 1014.7
20260901170057 22 229 1.6 6.4 0.00 0.00 0.00 46 1014.8
20260901165525 21 0 1.6 6.4 0.00 0.00 0.00 45 1014.7
20260901165024 21 198 1.6 6.4 0.00 0.00 0.00 45 1014.9
20260901164546 21 191 1.6 6.4 0.00 0.00 0.00 43 1014.8
20260901164027 21 185 1.6 6.4 0.00 0.00 0.00 47 1015.0
20260901163527 21 225 0.0 6.4 0.00 0.00 0.00 46 1015.0
20260901163054 21 0 1.6 8.0 0.00 0.00 0.00 41 1014.9
20260901162525 21 233 1.6 8.0 0.00 0.00 0.00 46 1015.0
20260901162029 21 161 1.6 8.0 0.00 0.00 0.00 44 1015.0
20260901161552 20 204 3.2 8.0 0.00 0.00 0.00 42 1015.1
20260901161026 20 198 3.2 8.0 0.00 0.00 0.00 42 1015.0
20260901160525 20 224 3.2 8.0 0.00 0.00 0.00 42 1015.0
20260901160105 20 206 1.6 6.4 0.00 0.00 0.00 43 1015.1
20260901155527 20 197 1.6 6.4 0.00 0.00 0.00 45 1015.2
20260901155028 19 255 3.2 6.4 0.00 0.00 0.00 43 1015.2
20260901154545 19 260 0.0 3.2 0.00 0.00 0.00 42 1015.1
20260901154025 19 0 0.0 3.2 0.00 0.00 0.00 43 1015.2
20260901153526 18 0 0.0 3.2 0.00 0.00 0.00 42 1015.3
20260901153058 18 0 0.0 0.0 0.00 0.00 0.00 49 1015.4
20260901152529 17 0 0.0 1.6 0.00 0.00 0.00 53 1015.3
20260901152025 17 0 0.0 1.6 0.00 0.00 0.00 52 1015.3
20260901151546 17 203 0.0 3.2 0.00 0.00 0.00 53 1015.4
20260901151026 16 0 0.0 4.8 0.00 0.00 0.00 59 1015.3
20260901150530 16 203 1.6 4.8 0.00 0.00 0.00 59 1015.3
20260901150058 16 203 3.2 4.8 0.00 0.00 0.00 54 1015.2
20260901145527 16 191 1.6 4.8 0.00 0.00 0.00 56 1015.2
20260901145027 15 0 0.0 4.8 0.00 0.00 0.00 61 1015.2
20260901144549 15 0 0.0 4.8 0.00 0.00 0.00 59 1015.4
20260901144025 15 211 1.6 6.4 0.00 0.00 0.00 60 1015.5
20260901143527 14 212 1.6 6.4 0.00 0.00 0.00 58 1015.4
20260901143107 14 275 3.2 4.8 0.00 0.00 0.00 58 1015.4
20260901142525 13 262 1.6 4.8 0.00 0.00 0.00 59 1015.4
20260901142024 13 272 0.0 8.0 0.00 0.00 0.00 62 1015.4
20260901141545 13 0 0.0 8.0 0.00 0.00 0.00 64 1015.3
20260901141025 12 307 0.0 4.8 0.00 0.00 0.00 68 1015.3
20260901140526 12 0 0.0 6.4 0.00 0.00 0.00 67 1015.2
20260901140128 11 291 1.6 6.4 0.00 0.00 0.00 65 1015.2
20260901135529 11 259 3.2 6.4 0.00 0.00 0.00 65 1015.2
20260901135028 11 0 0.0 3.2 0.00 0.00 0.00 66 1015.2
20260901134549 11 0 0.0 4.8 0.00 0.00 0.00 66 1015.2
20260901134031 10 0 1.6 4.8 0.00 0.00 0.00 66 1015.1
20260901133527 10 271 0.0 3.2 0.00 0.00 0.00 68 1015.0
20260901133046 10 271 0.0 3.2 0.00 0.00 0.00 70 1015.1
20260901132529 10 295 0.0 3.2 0.00 0.00 0.00 73 1015.0
20260901132031 10 0 0.0 4.8 0.00 0.00 0.00 72 1014.8
20260901131546 10 0 0.0 4.8 0.00 0.00 0.00 72 1014.9
20260901131028 10 295 1.6 4.8 0.00 0.00 0.00 69 1015.0
20260901130530 10 0 0.0 3.2 0.00 0.00 0.00 69 1015.0
20260901130051 10 0 1.6 4.8 0.00 0.00 0.00 69 1014.8
20260901125524 10 0 0.0 4.8 0.00 0.00 0.00 71 1014.8
20260901125025 10 293 0.0 4.8 0.00 0.00 0.00 70 1014.9
20260901124547 10 0 0.0 4.8 0.00 0.00 0.00 70 1014.8
20260901124030 10 295 0.0 4.8 0.00 0.00 0.00 70 1014.9
20260901123529 10 0 0.0 0.0 0.00 0.00 0.00 68 1015.2
20260901123045 10 0 0.0 0.0 0.00 0.00 0.00 66 1015.1
20260901122526 10 0 0.0 0.0 0.00 0.00 0.00 66 1015.1
20260901122027 10 0 0.0 3.2 0.00 0.00 0.00 67 1015.0
20260901121543 10 0 0.0 3.2 0.00 0.00 0.00 68 1015.0
20260901121029 10 0 0.0 3.2 0.00 0.00 0.00 69 1015.1
20260901120526 10 154 0.0 4.8 0.00 0.00 0.00 69 1015.1
20260901120052 10 0 0.0 8.0 0.00 0.00 0.00 70 1015.1
20260901115529 10 206 3.2 8.0 0.00 0.00 0.00 69 1015.1
20260901115024 10 216 0.0 3.2 0.00 0.00 0.00 69 1015.2
20260901114550 10 216 0.0 4.8 0.00 0.00 0.00 68 1015.1
20260901114028 10 216 1.6 4.8 0.00 0.00 0.00 68 1015.2
20260901113532 10 208 0.0 4.8 0.00 0.00 0.00 69 1015.1
20260901113045 10 209 0.0 4.8 0.00 0.00 0.00 69 1014.9
20260901112526 10 0 0.0 4.8 0.00 0.00 0.00 68 1014.8
20260901112025 10 219 1.6 4.8 0.00 0.00 0.00 68 1014.7
20260901111545 10 198 1.6 4.8 0.00 0.00 0.00 69 1014.9
20260901111028 10 205 1.6 6.4 0.00 0.00 0.00 69 1014.9
20260901110526 10 205 1.6 6.4 0.00 0.00 0.00 69 1014.8
20260901110052 10 207 1.6 6.4 0.00 0.00 0.00 69 1014.9
20260901105529 10 214 1.6 4.8 0.00 0.00 0.00 69 1014.8
20260901105026 10 204 0.0 4.8 0.00 0.00 0.00 70 1014.8
20260901104546 10 204 1.6 4.8 0.00 0.00 0.00 70 1014.7
20260901104028 10 203 1.6 6.4 0.00 0.00 0.00 71 1014.6
20260901103528 10 0 1.6 6.4 0.00 0.00 0.00 71 1014.8
20260901103044 10 0 0.0 4.8 0.00 0.00 0.00 71 1014.7
20260901102528 10 188 0.0 4.8 0.00 0.00 0.00 71 1014.8
20260901102025 9 0 0.0 0.0 0.00 0.00 0.00 71 1014.7
20260901101604 9 0 0.0 3.2 0.00 0.00 0.00 72 1014.7
20260901101024 10 0 0.0 3.2 0.00 0.00 0.00 72 1014.6
20260901100525 10 250 0.0 3.2 0.00 0.00 0.00 72 1014.6